Time,TemperatureF,DewpointF,PressureIn,WindDirection,WindDirectionDegrees,WindSpeedMPH,WindSpeedGustMPH,Humidity,HourlyPrecipIn,Conditions,Clouds,dailyrainin,SoftwareType,DateUTC
2013-07-04 07:49:00,70.3,61.5,29.97,East,90,0.0,0.0,74,0.00,,,0.00,WUHU216HW,2013-07-04 05:49:00,
2013-07-04 07:59:00,70.8,61.3,29.98,East,90,0.0,0.0,72,0.00,,,0.00,WUHU216HW,2013-07-04 05:59:00,
2013-07-04 08:04:00,71.2,61.7,29.98,NNE,23,0.0,0.0,72,0.00,,,0.00,WUHU216HW,2013-07-04 06:04:00,
2013-07-04 08:09:00,71.4,61.9,29.99,ENE,68,0.0,0.0,72,0.00,,,0.00,WUHU216HW,2013-07-04 06:09:00,
2013-07-04 08:14:00,71.7,62.2,29.99,NE,45,0.0,0.0,72,0.00,,,0.00,WUHU216HW,2013-07-04 06:14:00,
2013-07-04 08:19:00,71.9,62.0,30.00,ESE,113,0.0,0.0,71,0.00,,,0.00,WUHU216HW,2013-07-04 06:19:00,
2013-07-04 08:24:00,72.1,62.2,30.01,ENE,68,0.0,0.0,71,0.00,,,0.00,WUHU216HW,2013-07-04 06:24:00,
2013-07-04 08:29:00,72.5,62.2,30.02,ESE,113,0.0,0.0,70,0.00,,,0.00,WUHU216HW,2013-07-04 06:29:00,
2013-07-04 08:34:00,72.5,61.7,30.02,ESE,113,0.0,0.0,69,0.00,,,0.00,WUHU216HW,2013-07-04 06:34:00,
2013-07-04 08:39:00,72.3,62.2,30.02,ESE,113,0.0,0.0,70,0.00,,,0.00,WUHU216HW,2013-07-04 06:39:00,
2013-07-04 08:44:00,73.2,62.9,30.02,East,90,0.0,0.0,70,0.00,,,0.00,WUHU216HW,2013-07-04 06:44:00,
2013-07-04 08:49:00,73.9,63.1,30.03,ENE,68,0.0,0.0,69,0.00,,,0.00,WUHU216HW,2013-07-04 06:49:00,
2013-07-04 08:54:00,74.3,62.6,30.04,East,90,0.0,0.0,67,0.00,,,0.00,WUHU216HW,2013-07-04 06:54:00,
2013-07-04 08:59:00,74.4,62.7,30.04,East,90,0.0,0.0,67,0.00,,,0.00,WUHU216HW,2013-07-04 06:59:00,
2013-07-04 12:19:00,86.7,62.1,30.02,SE,135,3.5,3.5,44,0.00,,,0.00,WUHU216HW,2013-07-04 10:19:00,
2013-07-04 12:28:00,85.8,59.9,30.02,SSW,203,2.2,5.3,42,0.00,,,0.00,WUHU216HW,2013-07-04 10:28:00,
2013-07-04 12:34:00,85.6,59.9,30.03,NW,315,0.0,3.1,42,0.00,,,0.00,WUHU216HW,2013-07-04 10:34:00,
2013-07-04 12:39:00,85.6,59.9,30.03,WNW,293,3.8,5.1,42,0.00,,,0.00,WUHU216HW,2013-07-04 10:39:00,
2013-07-04 12:44:00,85.8,60.0,30.04,NNE,23,1.5,5.1,42,0.00,,,0.00,WUHU216HW,2013-07-04 10:44:00,
2013-07-04 12:49:00,85.8,60.0,30.04,NW,315,3.5,7.1,42,0.00,,,0.00,WUHU216HW,2013-07-04 10:49:00,
2013-07-04 12:54:00,85.4,60.4,30.05,North,0,2.0,7.1,43,0.00,,,0.00,WUHU216HW,2013-07-04 10:54:00,
2013-07-04 12:59:00,85.8,60.0,30.05,NNW,338,6.2,6.2,42,0.00,,,0.00,WUHU216HW,2013-07-04 10:59:00,
2013-07-04 13:04:00,86.1,60.4,30.06,North,0,0.8,6.2,42,0.00,,,0.00,WUHU216HW,2013-07-04 11:04:00,
2013-07-04 13:09:00,86.1,59.7,30.06,NNE,23,7.1,7.1,41,0.00,,,0.00,WUHU216HW,2013-07-04 11:09:00,
2013-07-04 16:52:00,86.7,58.0,30.04,SE,135,1.7,1.7,38,0.00,,,0.00,WUHU216HW,2013-07-04 14:52:00,
2013-07-04 17:02:00,86.5,57.8,30.05,NNW,338,9.6,10.5,38,0.00,,,0.00,WUHU216HW,2013-07-04 15:02:00,
2013-07-04 17:07:00,86.3,57.7,30.06,West,270,0.0,9.6,38,0.00,,,0.00,WUHU216HW,2013-07-04 15:07:00,
2013-07-04 17:16:00,86.1,57.5,30.06,NW,315,4.4,4.9,38,0.00,,,0.00,WUHU216HW,2013-07-04 15:16:00,
2013-07-04 17:49:00,85.8,57.2,30.06,WNW,293,3.3,3.3,38,0.00,,,0.00,WUHU216HW,2013-07-04 15:49:00,
2013-07-04 17:54:00,85.6,57.0,30.06,NNE,23,1.1,7.1,38,0.00,,,0.00,WUHU216HW,2013-07-04 15:54:00,
2013-07-04 20:07:00,75.5,55.7,30.06,WNW,293,0.0,0.0,50,0.00,,,0.00,WUHU216HW,2013-07-04 18:07:00,
2013-07-04 20:17:00,75.3,54.9,30.05,WNW,293,0.0,3.8,49,0.00,,,0.00,WUHU216HW,2013-07-04 18:17:00,
2013-07-04 20:22:00,75.2,54.7,30.07,NW,315,2.0,4.0,49,0.00,,,0.00,WUHU216HW,2013-07-04 18:22:00,
2013-07-04 20:27:00,75.2,54.7,30.08,WNW,293,2.0,4.0,49,0.00,,,0.00,WUHU216HW,2013-07-04 18:27:00,
2013-07-04 22:02:00,76.1,60.7,30.06,NW,315,12.7,12.7,59,0.00,,,0.00,WUHU216HW,2013-07-04 20:02:00,
2013-07-04 22:12:00,75.7,60.9,30.08,NNW,338,6.9,10.2,60,0.00,,,0.00,WUHU216HW,2013-07-04 20:12:00,
2013-07-04 22:17:00,75.5,60.7,30.09,NNW,338,6.2,10.5,60,0.00,,,0.00,WUHU216HW,2013-07-04 20:17:00,
2013-07-04 22:22:00,75.3,61.0,30.09,North,0,8.5,11.4,61,0.00,,,0.00,WUHU216HW,2013-07-04 20:22:00,
2013-07-04 22:27:00,75.0,60.6,30.09,WNW,293,2.0,11.4,61,0.00,,,0.00,WUHU216HW,2013-07-04 20:27:00,
2013-07-04 22:32:00,74.8,60.9,30.09,NNW,338,5.8,5.8,62,0.00,,,0.00,WUHU216HW,2013-07-04 20:32:00,